AL YAH 3 (43174 NORAD) Tracking and Keplerian Element Data

This shows tracking and keplerian element data for the satellite.

Feedback or suggestion? Click here.




ElementValue
Catalog43174
NameAL YAH 3
Epoch Orbit2195
Epoch Day12.86521937
Epoch Year2024
RAAN276.7286
Inclination0.0324
Eccentricity0.0002127
Argument of Perigee37.2687
Mean Anonmoly89.2172
Mean Motion1.0026982
Decay Rate-1.46E-06
L11 43174U 18012A 24012.86521937 -.00000146 00000+0 00000+0 0 9991
L22 43174 0.0324 276.7286 0002127 37.2687 89.2172 1.00269820 21957



Live tracking and technical data element details for AL YAH 3 (NORAD 43174). AL YAH 3 can be tracked NOW for your location showing map with azimuth and elevation plus other details from your city location.







IsCatalogInMostPopularTable: catalog: 43174, numindb: 966
Update: records affected: 1



GetName: 43174 AL YAH 3

Hit Count: updated at: Sat, 20 Apr 2024 11:24:19 GMT